TimeIST,TemperatureF,Dew PointF,Humidity,Sea Level PressureIn,VisibilityMPH,Wind Direction,Wind SpeedMPH,Gust SpeedMPH,PrecipitationIn,Events,Conditions,WindDirDegrees,DateUTC
12:00 AM,80.6,57.2,45,29.92,2.5,Calm,Calm,-,N/A,,Haze,0,2013-04-23 18:30:00
1:00 AM,80.6,57.2,45,29.89,2.5,Variable,1.2,-,N/A,,Haze,0,2013-04-23 19:30:00
2:00 AM,78.8,57.2,47,29.89,2.5,Calm,Calm,-,N/A,,Haze,0,2013-04-23 20:30:00
2:30 AM,80,54,31,29.81,2,Calm,Calm,,,,Haze,,2013-04-23 21:00:00
4:00 AM,78.8,57.2,47,29.89,2.5,Calm,Calm,-,N/A,,Haze,0,2013-04-23 22:30:00
5:00 AM,78.8,57.2,47,29.89,2.5,Calm,Calm,-,N/A,,Haze,0,2013-04-23 23:30:00
5:30 AM,75,58,46,29.84,2,Calm,Calm,,,,Haze,,2013-04-24 00:00:00
6:00 AM,77.0,57.2,50,29.92,2.5,Calm,Calm,-,N/A,,Haze,0,2013-04-24 00:30:00
7:00 AM,77.0,59.0,54,29.95,2.5,Calm,Calm,-,N/A,,Haze,0,2013-04-24 01:30:00
8:00 AM,84.2,57.2,40,29.95,2.5,Variable,1.2,-,N/A,,Haze,0,2013-04-24 02:30:00
9:00 AM,87.8,53.6,31,29.98,2.5,SE,4.6,-,N/A,,Haze,140,2013-04-24 03:30:00
9:30 AM,87.8,55.4,33,29.98,2.5,South,3.5,-,N/A,,Haze,170,2013-04-24 04:00:00
11:00 AM,93.2,53.6,26,29.98,3.7,South,4.6,-,N/A,,Unknown,170,2013-04-24 05:30:00
11:30 AM,95,57,19,29.85,2,Calm,Calm,,,,Scattered Clouds,,2013-04-24 06:00:00
11:30 AM,93.2,53.6,26,29.95,3.7,Variable,3.5,-,N/A,,Scattered Clouds,0,2013-04-24 06:00:00
12:00 PM,93.2,53.6,26,29.95,3.7,Variable,5.8,-,N/A,,Scattered Clouds,0,2013-04-24 06:30:00
12:30 PM,95.0,53.6,25,29.95,3.7,South,4.6,-,N/A,,Scattered Clouds,190,2013-04-24 07:00:00
1:00 PM,95.0,51.8,23,29.92,3.7,Variable,4.6,-,N/A,,Scattered Clouds,0,2013-04-24 07:30:00
2:00 PM,98.6,53.6,22,29.89,3.7,Variable,1.2,-,N/A,,Scattered Clouds,0,2013-04-24 08:30:00
2:30 PM,97,55,16,29.78,2,SE,2.3,,,,Partly Cloudy,140,2013-04-24 09:00:00
3:00 PM,96.8,50.0,20,29.86,3.7,Variable,6.9,-,N/A,,Scattered Clouds,0,2013-04-24 09:30:00
4:00 PM,96.8,51.8,22,29.83,3.7,Variable,4.6,-,N/A,,Scattered Clouds,0,2013-04-24 10:30:00
5:30 PM,96,56,17,29.71,2,NW,2.3,,,,Haze,320,2013-04-24 12:00:00
6:00 PM,95.0,51.8,23,29.80,2.5,Calm,Calm,-,N/A,,Haze,0,2013-04-24 12:30:00
7:00 PM,93.2,51.8,24,29.83,2.5,WNW,4.6,-,N/A,,Haze,290,2013-04-24 13:30:00
7:30 PM,91.4,53.6,28,29.83,2.5,WSW,5.8,-,N/A,,Haze,250,2013-04-24 14:00:00
8:00 PM,91.4,53.6,28,29.83,2.5,SW,3.5,-,N/A,,Haze,230,2013-04-24 14:30:00
8:30 PM,90,58,24,29.75,2,Calm,Calm,,,,Haze,,2013-04-24 15:00:00
11:00 PM,86.0,57.2,37,29.86,2.2,Calm,Calm,-,N/A,,Haze,0,2013-04-24 17:30:00
11:30 PM,86,59,30,29.76,1,Calm,Calm,,,,Haze,,2013-04-24 18:00:00